Tracking 19246 objects as of 20-Aug-2018
HD Live streaming from Space Station
objects crossing your sky now

FENGYUN 1C DEB

Track FENGYUN 1C DEB now!
10-day predictions


NORAD ID: 30050
Int'l Code: 1999-025PB
Perigee: 837.5 km
Apogee: 1,105.5 km
Inclination: 96.8 °
Period: 104.4 minutes
Semi major axis: 7342 km
RCS: 0.035 m2 (small)
Launch date: May 10, 1999
Source: People's Republic of China (PRC)
Launch site: Taiyaun Space Center, China (TSC)

Note: This is SATELLITE DEBRIS
aabbcc
Your satellite tracking list
Your tracking list is empty




NASA's NSSDC Master Catalog

Two Line Element Set (TLE):
1 30050U 99025PB  18232.38073946  .00000257  00000-0  23994-3 0  9993
2 30050  96.8261 172.2925 0182462  48.9021  69.0500 13.79862496583334
Source of the keplerian elements: AFSPC